TAR708 DTTA-DAOO

Flight info

Callsign TAR708
Flight time 1h 23m
Altitude 36000
Route KEMIR4B KEMIR UM978 MORJA UA411 BNA UA31 CHE UA411 MOS
Aircraft A20N/M-SDE2E3FGHIRWXY/LB1

Departure

Time 2026-04-26 09:43
Airport Tunis Carthage International Airport (DTTA)

Arrival

Time 2026-04-26 11:06
Airport Oran Es-Sénia (Ahmed Ben Bella) International Airport (DAOO)
Time Latitude Longitude Altitude Speed Heading
2026-04-26 09:08 36.84821 10.21935 33 ft 0 kts 283°
2026-04-26 09:14 36.84820 10.21935 33 ft 1 kts 283°
2026-04-26 09:14 36.84815 10.21963 33 ft 4 kts 283°
2026-04-26 09:15 36.84810 10.21992 33 ft 4 kts 279°
2026-04-26 09:15 36.84810 10.22024 33 ft 4 kts 241°
2026-04-26 09:15 36.84828 10.22042 33 ft 4 kts 186°
2026-04-26 09:15 36.84855 10.22041 33 ft 4 kts 175°
2026-04-26 09:16 36.84881 10.22042 33 ft 4 kts 180°
2026-04-26 09:16 36.84906 10.22035 33 ft 4 kts 140°
2026-04-26 09:16 36.84920 10.22010 33 ft 3 kts 104°
2026-04-26 09:16 36.84921 10.22005 33 ft 1 kts 103°
2026-04-26 09:24 36.84921 10.22006 33 ft 1 kts 103°
2026-04-26 09:24 36.84916 10.22033 33 ft 4 kts 103°
2026-04-26 09:24 36.84910 10.22064 33 ft 4 kts 103°
2026-04-26 09:25 36.84904 10.22095 33 ft 4 kts 103°
2026-04-26 09:25 36.84899 10.22126 33 ft 4 kts 103°
2026-04-26 09:25 36.84893 10.22156 33 ft 4 kts 103°
2026-04-26 09:25 36.84883 10.22212 33 ft 7 kts 103°
2026-04-26 09:26 36.84871 10.22273 33 ft 7 kts 103°
2026-04-26 09:26 36.84872 10.22330 33 ft 6 kts 69°
2026-04-26 09:26 36.84893 10.22361 34 ft 4 kts 38°
2026-04-26 09:26 36.84910 10.22369 34 ft 2 kts 13°
2026-04-26 09:27 36.84920 10.22372 34 ft 1 kts 13°
2026-04-26 09:27 36.84929 10.22374 34 ft 1 kts 13°
2026-04-26 09:27 36.84934 10.22376 34 ft 1 kts 13°
2026-04-26 09:27 36.84937 10.22377 34 ft 0 kts 13°
2026-04-26 09:28 36.84962 10.22384 34 ft 5 kts 13°
2026-04-26 09:28 36.84997 10.22394 34 ft 5 kts 13°
2026-04-26 09:28 36.85029 10.22404 34 ft 4 kts 13°
2026-04-26 09:29 36.85055 10.22411 34 ft 3 kts 13°
2026-04-26 09:29 36.85074 10.22417 35 ft 2 kts 13°
2026-04-26 09:29 36.85081 10.22419 35 ft 0 kts 13°
2026-04-26 09:29 36.85082 10.22419 35 ft 0 kts 13°
2026-04-26 09:33 36.85117 10.22429 35 ft 11 kts 13°
2026-04-26 09:33 36.85185 10.22449 39 ft 9 kts 13°
2026-04-26 09:33 36.85257 10.22469 37 ft 13 kts 13°
2026-04-26 09:34 36.85355 10.22495 34 ft 15 kts
2026-04-26 09:34 36.85448 10.22517 34 ft 14 kts 12°
2026-04-26 09:34 36.85546 10.22543 33 ft 14 kts 12°
2026-04-26 09:34 36.85645 10.22569 33 ft 15 kts 12°
2026-04-26 09:35 36.85745 10.22595 33 ft 15 kts 12°
2026-04-26 09:35 36.85846 10.22623 33 ft 15 kts 13°
2026-04-26 09:35 36.85946 10.22651 33 ft 15 kts 13°
2026-04-26 09:35 36.86047 10.22680 33 ft 15 kts 13°
2026-04-26 09:36 36.86147 10.22709 33 ft 15 kts 13°
2026-04-26 09:36 36.86246 10.22737 33 ft 15 kts 13°
2026-04-26 09:36 36.86345 10.22766 34 ft 15 kts 13°
2026-04-26 09:36 36.86442 10.22793 34 ft 14 kts 11°
2026-04-26 09:37 36.86541 10.22818 34 ft 14 kts 11°
2026-04-26 09:37 36.86638 10.22842 34 ft 14 kts 11°
2026-04-26 09:37 36.86733 10.22874 32 ft 13 kts 31°
2026-04-26 09:37 36.86782 10.22964 33 ft 12 kts 84°
2026-04-26 09:38 36.86777 10.23011 34 ft 0 kts 107°
2026-04-26 09:38 36.86777 10.23012 34 ft 2 kts 107°
2026-04-26 09:38 36.86774 10.23024 34 ft 0 kts 110°
2026-04-26 09:42 36.86753 10.23066 34 ft 10 kts 135°
2026-04-26 09:42 36.86662 10.23112 34 ft 19 kts 174°
2026-04-26 09:42 36.86478 10.23079 36 ft 50 kts 189°
2026-04-26 09:42 36.85912 10.22918 32 ft 115 kts 192°
2026-04-26 09:43 36.84942 10.22655 36 ft 167 kts 192°
2026-04-26 09:43 36.83718 10.22287 217 ft 190 kts 194°
2026-04-26 09:43 36.82423 10.21875 714 ft 189 kts 192°
2026-04-26 09:43 36.81167 10.21553 1468 ft 186 kts 190°
2026-04-26 09:44 36.79821 10.21350 2007 ft 202 kts 177°
2026-04-26 09:44 36.78475 10.21832 2754 ft 204 kts 147°
2026-04-26 09:44 36.77545 10.23094 3532 ft 206 kts 116°
2026-04-26 09:44 36.77306 10.24884 4294 ft 210 kts 82°
2026-04-26 09:45 36.77916 10.26531 5027 ft 214 kts 48°
2026-04-26 09:45 36.79185 10.27489 5751 ft 218 kts 13°
2026-04-26 09:45 36.80687 10.27378 6458 ft 220 kts 337°
2026-04-26 09:45 36.81991 10.26389 7203 ft 220 kts 322°
2026-04-26 09:46 36.83205 10.25172 7777 ft 228 kts 319°
2026-04-26 09:46 36.84328 10.23751 8383 ft 232 kts 306°
2026-04-26 09:46 36.85016 10.21924 8959 ft 239 kts 284°
2026-04-26 09:46 36.85186 10.19735 9197 ft 268 kts 270°
2026-04-26 09:47 36.85145 10.17339 9781 ft 281 kts 269°
2026-04-26 09:47 36.85077 10.14879 10586 ft 289 kts 269°
2026-04-26 09:47 36.85016 10.12274 10997 ft 312 kts 269°
2026-04-26 09:47 36.84961 10.09463 11343 ft 334 kts 269°
2026-04-26 09:48 36.84926 10.07503 11573 ft 348 kts 270°
2026-04-26 09:48 36.84875 10.04420 11904 ft 366 kts 270°
2026-04-26 09:48 36.84823 10.01180 12388 ft 376 kts 270°
2026-04-26 09:48 36.84769 9.97891 13069 ft 381 kts 270°
2026-04-26 09:49 36.84715 9.94572 13814 ft 384 kts 269°
2026-04-26 09:49 36.84660 9.91227 14579 ft 387 kts 269°
2026-04-26 09:49 36.84604 9.87854 15264 ft 390 kts 269°
2026-04-26 09:49 36.84546 9.84453 15932 ft 394 kts 269°
2026-04-26 09:50 36.84488 9.81022 16583 ft 397 kts 269°
2026-04-26 09:50 36.84428 9.77564 17240 ft 400 kts 269°
2026-04-26 09:50 36.84366 9.74076 17847 ft 403 kts 269°
2026-04-26 09:50 36.84302 9.70561 18466 ft 406 kts 269°
2026-04-26 09:51 36.84238 9.67018 19047 ft 409 kts 269°
2026-04-26 09:51 36.84171 9.63446 19601 ft 413 kts 269°
2026-04-26 09:51 36.84103 9.59842 20145 ft 417 kts 269°
2026-04-26 09:51 36.84034 9.56204 20680 ft 421 kts 269°
2026-04-26 09:52 36.83963 9.52591 21174 ft 424 kts 269°
2026-04-26 09:52 36.83815 9.45155 22150 ft 432 kts 269°
2026-04-26 09:52 36.83748 9.41344 22652 ft 435 kts 269°
2026-04-26 09:53 36.83719 9.37556 23121 ft 438 kts 270°
2026-04-26 09:53 36.83712 9.33782 23551 ft 442 kts 270°
2026-04-26 09:53 36.83714 9.29940 23993 ft 445 kts 270°
2026-04-26 09:53 36.83716 9.26071 24422 ft 448 kts 270°
2026-04-26 09:54 36.83716 9.22174 24835 ft 450 kts 270°
2026-04-26 09:54 36.83712 9.18239 25217 ft 454 kts 270°
2026-04-26 09:54 36.83703 9.14305 25736 ft 453 kts 270°
2026-04-26 09:54 36.83691 9.10387 26383 ft 450 kts 270°
2026-04-26 09:55 36.83677 9.06488 26933 ft 449 kts 270°
2026-04-26 09:55 36.83661 9.02603 27435 ft 448 kts 270°
2026-04-26 09:55 36.83644 8.98712 27946 ft 447 kts 270°
2026-04-26 09:55 36.83626 8.94839 28464 ft 446 kts 269°
2026-04-26 09:56 36.83608 8.90967 28928 ft 445 kts 269°
2026-04-26 09:56 36.83588 8.87095 29428 ft 444 kts 269°
2026-04-26 09:56 36.83567 8.83251 29921 ft 443 kts 269°
2026-04-26 09:56 36.83544 8.79376 30343 ft 443 kts 269°
2026-04-26 09:57 36.83521 8.75571 30845 ft 440 kts 269°
2026-04-26 09:57 36.83496 8.71771 31384 ft 437 kts 269°
2026-04-26 09:57 36.83471 8.67993 31873 ft 434 kts 269°
2026-04-26 09:57 36.83450 8.64230 32299 ft 432 kts 269°
2026-04-26 09:58 36.83442 8.60487 32713 ft 431 kts 270°
2026-04-26 09:58 36.83443 8.56805 33140 ft 429 kts 270°
2026-04-26 09:58 36.83447 8.53046 33583 ft 426 kts 270°
2026-04-26 09:58 36.83449 8.49403 33999 ft 424 kts 270°
2026-04-26 09:59 36.83451 8.45688 34398 ft 421 kts 270°
2026-04-26 09:59 36.83451 8.42032 34718 ft 421 kts 270°
2026-04-26 09:59 36.83448 8.38387 35017 ft 420 kts 270°
2026-04-26 09:59 36.83444 8.34739 35311 ft 420 kts 270°
2026-04-26 10:00 36.83438 8.31091 35577 ft 420 kts 270°
2026-04-26 10:00 36.83431 8.27497 35827 ft 419 kts 270°
2026-04-26 10:00 36.83423 8.23807 36066 ft 420 kts 270°
2026-04-26 10:00 36.83414 8.20148 36127 ft 422 kts 270°
2026-04-26 10:01 36.83393 8.12890 36132 ft 420 kts 270°
2026-04-26 10:01 36.83367 8.05613 36126 ft 419 kts 270°
2026-04-26 10:02 36.83336 7.98285 36127 ft 419 kts 269°
2026-04-26 10:02 36.83301 7.91015 36130 ft 419 kts 269°
2026-04-26 10:03 36.83262 7.83737 36129 ft 419 kts 269°
2026-04-26 10:03 36.83204 7.76453 36132 ft 419 kts 269°
2026-04-26 10:04 36.83126 7.69179 36126 ft 419 kts 269°
2026-04-26 10:04 36.83042 7.61909 36127 ft 419 kts 269°
2026-04-26 10:05 36.82955 7.54623 36128 ft 420 kts 269°
2026-04-26 10:05 36.82863 7.47337 36140 ft 420 kts 269°
2026-04-26 10:06 36.82768 7.40088 36131 ft 420 kts 269°
2026-04-26 10:06 36.82669 7.32799 36131 ft 420 kts 269°
2026-04-26 10:07 36.82565 7.25460 36134 ft 421 kts 269°
2026-04-26 10:07 36.82457 7.18199 36149 ft 421 kts 268°
2026-04-26 10:08 36.82345 7.10891 36145 ft 421 kts 268°
2026-04-26 10:08 36.82228 7.03579 36150 ft 421 kts 268°
2026-04-26 10:09 36.82106 6.96274 36156 ft 421 kts 268°
2026-04-26 10:09 36.81979 6.88968 36159 ft 421 kts 268°
2026-04-26 10:10 36.81848 6.81652 36166 ft 421 kts 268°
2026-04-26 10:10 36.81713 6.74348 36166 ft 421 kts 268°
2026-04-26 10:11 36.81573 6.67032 36170 ft 421 kts 268°
2026-04-26 10:11 36.81428 6.59718 36176 ft 421 kts 268°
2026-04-26 10:12 36.81280 6.52410 36139 ft 421 kts 268°
2026-04-26 10:12 36.81126 6.45098 36140 ft 421 kts 268°
2026-04-26 10:13 36.80969 6.37837 36127 ft 421 kts 268°
2026-04-26 10:13 36.80807 6.30534 36131 ft 421 kts 268°
2026-04-26 10:14 36.80641 6.23233 36121 ft 421 kts 268°
2026-04-26 10:14 36.80470 6.15932 36113 ft 421 kts 267°
2026-04-26 10:15 36.80295 6.08635 36111 ft 421 kts 267°
2026-04-26 10:15 36.80115 6.01340 36110 ft 420 kts 267°
2026-04-26 10:16 36.79931 5.94055 36097 ft 420 kts 267°
2026-04-26 10:16 36.79631 5.86764 36102 ft 421 kts 263°
2026-04-26 10:17 36.78976 5.79508 36101 ft 421 kts 262°
2026-04-26 10:17 36.78248 5.72262 36100 ft 421 kts 262°
2026-04-26 10:18 36.77505 5.65007 36102 ft 421 kts 262°
2026-04-26 10:18 36.76764 5.57768 36111 ft 421 kts 262°
2026-04-26 10:19 36.76028 5.50576 36108 ft 421 kts 262°
2026-04-26 10:19 36.75282 5.43330 36110 ft 421 kts 262°
2026-04-26 10:20 36.74654 5.37254 36110 ft 422 kts 262°
2026-04-26 10:20 36.73776 5.28812 36108 ft 422 kts 262°
2026-04-26 10:21 36.73016 5.21558 36110 ft 422 kts 262°
2026-04-26 10:21 36.72248 5.14288 36101 ft 423 kts 261°
2026-04-26 10:22 36.71510 5.06997 36101 ft 424 kts 263°
2026-04-26 10:22 36.71138 4.99655 36102 ft 424 kts 266°
2026-04-26 10:23 36.70917 4.92314 36100 ft 424 kts 266°
2026-04-26 10:23 36.70678 4.84965 36110 ft 424 kts 266°
2026-04-26 10:24 36.70404 4.77622 36109 ft 424 kts 265°
2026-04-26 10:24 36.70112 4.70281 36107 ft 424 kts 265°
2026-04-26 10:25 36.69813 4.62939 36122 ft 424 kts 265°
2026-04-26 10:25 36.69515 4.55652 36122 ft 424 kts 265°
2026-04-26 10:26 36.69208 4.48311 36115 ft 423 kts 265°
2026-04-26 10:26 36.68899 4.40991 36130 ft 423 kts 265°
2026-04-26 10:27 36.68585 4.33674 36121 ft 423 kts 265°
2026-04-26 10:27 36.68267 4.26366 36130 ft 422 kts 265°
2026-04-26 10:28 36.67999 4.20298 36126 ft 422 kts 265°
2026-04-26 10:28 36.67674 4.13010 36131 ft 421 kts 265°
2026-04-26 10:29 36.67292 4.04557 36120 ft 420 kts 265°
2026-04-26 10:29 36.67014 3.98494 36128 ft 420 kts 265°
2026-04-26 10:30 36.66674 3.91190 36131 ft 422 kts 264°
2026-04-26 10:30 36.66329 3.83873 36127 ft 423 kts 264°
2026-04-26 10:31 36.65981 3.76556 36124 ft 423 kts 264°
2026-04-26 10:31 36.65627 3.69229 36127 ft 424 kts 264°
2026-04-26 10:32 36.65278 3.61903 36119 ft 424 kts 266°
2026-04-26 10:32 36.65638 3.54539 36125 ft 428 kts 274°
2026-04-26 10:33 36.66370 3.47170 36123 ft 430 kts 275°
2026-04-26 10:33 36.67170 3.39795 36129 ft 430 kts 275°
2026-04-26 10:34 36.67967 3.32399 36124 ft 431 kts 275°
2026-04-26 10:34 36.68746 3.24982 36121 ft 432 kts 274°
2026-04-26 10:35 36.68738 3.17530 36132 ft 430 kts 264°
2026-04-26 10:35 36.68196 3.10103 36131 ft 430 kts 262°
2026-04-26 10:36 36.67550 3.02728 36122 ft 431 kts 262°
2026-04-26 10:36 36.66894 2.95291 36131 ft 432 kts 262°
2026-04-26 10:37 36.66247 2.87840 36130 ft 433 kts 262°
2026-04-26 10:37 36.65601 2.80374 36127 ft 433 kts 262°
2026-04-26 10:38 36.64952 2.72913 36131 ft 434 kts 262°
2026-04-26 10:38 36.64296 2.65436 36123 ft 434 kts 262°
2026-04-26 10:39 36.63635 2.57955 36131 ft 435 kts 262°
2026-04-26 10:39 36.62973 2.50520 36124 ft 434 kts 262°
2026-04-26 10:40 36.62305 2.43057 36128 ft 434 kts 262°
2026-04-26 10:40 36.61631 2.35594 36145 ft 434 kts 262°
2026-04-26 10:41 36.60951 2.28123 36137 ft 434 kts 262°
2026-04-26 10:41 36.60167 2.20684 36138 ft 433 kts 256°
2026-04-26 10:42 36.58232 2.13596 36129 ft 432 kts 248°
2026-04-26 10:42 36.55943 2.06688 36129 ft 431 kts 246°
2026-04-26 10:43 36.53585 1.99835 36128 ft 431 kts 246°
2026-04-26 10:43 36.51250 1.93023 36133 ft 432 kts 247°
2026-04-26 10:44 36.48897 1.86122 36132 ft 433 kts 247°
2026-04-26 10:44 36.46553 1.79242 36124 ft 432 kts 247°
2026-04-26 10:45 36.44205 1.72366 36123 ft 432 kts 247°
2026-04-26 10:45 36.41852 1.65491 36129 ft 433 kts 247°
2026-04-26 10:46 36.39492 1.58614 36127 ft 433 kts 247°
2026-04-26 10:46 36.37123 1.51729 36127 ft 434 kts 246°
2026-04-26 10:47 36.34795 1.44873 36134 ft 434 kts 247°
2026-04-26 10:47 36.32478 1.37949 36133 ft 435 kts 247°
2026-04-26 10:48 36.30156 1.31018 36133 ft 436 kts 247°
2026-04-26 10:48 36.27819 1.24075 36125 ft 436 kts 247°
2026-04-26 10:49 36.25471 1.17125 36130 ft 437 kts 247°
2026-04-26 10:49 36.23118 1.10177 36125 ft 438 kts 247°
2026-04-26 10:50 36.21160 1.04402 36123 ft 438 kts 247°
2026-04-26 10:50 36.18392 0.96270 35819 ft 437 kts 247°
2026-04-26 10:51 36.17212 0.92806 35571 ft 437 kts 247°
2026-04-26 10:51 36.14838 0.85856 35126 ft 436 kts 247°
2026-04-26 10:51 36.13667 0.82433 34585 ft 429 kts 247°
2026-04-26 10:52 36.12500 0.79025 33425 ft 434 kts 246°
2026-04-26 10:52 36.11314 0.75565 32191 ft 440 kts 246°
2026-04-26 10:52 36.10108 0.72052 30936 ft 445 kts 246°
2026-04-26 10:52 36.08893 0.68514 29660 ft 450 kts 246°
2026-04-26 10:53 36.07680 0.64986 28379 ft 453 kts 246°
2026-04-26 10:53 36.06440 0.61387 27038 ft 455 kts 246°
2026-04-26 10:53 36.05195 0.57775 25610 ft 458 kts 246°
2026-04-26 10:54 36.02681 0.50491 22711 ft 461 kts 246°
2026-04-26 10:54 36.01431 0.46877 21423 ft 456 kts 246°
2026-04-26 10:54 36.00198 0.43315 20271 ft 448 kts 246°
2026-04-26 10:54 35.98975 0.39787 19096 ft 441 kts 246°
2026-04-26 10:55 35.97784 0.36353 17935 ft 432 kts 246°
2026-04-26 10:55 35.96603 0.32956 16667 ft 428 kts 246°
2026-04-26 10:55 35.95439 0.29610 15467 ft 421 kts 246°
2026-04-26 10:55 35.94674 0.27412 14705 ft 416 kts 246°
2026-04-26 10:56 35.93164 0.23081 13380 ft 403 kts 246°
2026-04-26 10:56 35.92085 0.19990 12885 ft 381 kts 246°
2026-04-26 10:56 35.91075 0.17097 12399 ft 363 kts 246°
2026-04-26 10:56 35.90084 0.14270 11907 ft 347 kts 246°
2026-04-26 10:57 35.89126 0.11640 11421 ft 334 kts 245°
2026-04-26 10:57 35.88166 0.09048 10915 ft 322 kts 244°
2026-04-26 10:57 35.87260 0.06612 10521 ft 309 kts 244°
2026-04-26 10:57 35.86384 0.04255 10174 ft 297 kts 242°
2026-04-26 10:58 35.85516 0.01923 9511 ft 296 kts 242°
2026-04-26 10:58 35.84670 -0.00347 8935 ft 293 kts 240°
2026-04-26 10:58 35.83819 -0.02630 8499 ft 286 kts 241°
2026-04-26 10:58 35.83006 -0.04812 8129 ft 280 kts 243°
2026-04-26 10:59 35.82198 -0.06973 7756 ft 276 kts 243°
2026-04-26 10:59 35.81393 -0.09124 7342 ft 279 kts 244°
2026-04-26 10:59 35.80573 -0.11310 6879 ft 283 kts 244°
2026-04-26 10:59 35.79745 -0.13522 6461 ft 284 kts 244°
2026-04-26 11:00 35.78922 -0.15721 6097 ft 283 kts 244°
2026-04-26 11:00 35.78099 -0.17921 5708 ft 282 kts 244°
2026-04-26 11:00 35.77277 -0.20114 5316 ft 281 kts 244°
2026-04-26 11:00 35.76458 -0.22299 4927 ft 281 kts 244°
2026-04-26 11:01 35.75645 -0.24468 4534 ft 280 kts 244°
2026-04-26 11:01 35.74831 -0.26638 4149 ft 279 kts 244°
2026-04-26 11:01 35.74018 -0.28802 3758 ft 278 kts 245°
2026-04-26 11:01 35.73205 -0.30967 3387 ft 278 kts 245°
2026-04-26 11:02 35.72402 -0.33102 3259 ft 270 kts 245°
2026-04-26 11:02 35.71636 -0.35133 3251 ft 253 kts 245°
2026-04-26 11:02 35.70931 -0.37044 3251 ft 238 kts 246°
2026-04-26 11:02 35.70290 -0.38889 3253 ft 233 kts 247°
2026-04-26 11:03 35.69660 -0.40735 3251 ft 234 kts 247°
2026-04-26 11:03 35.69032 -0.42584 3244 ft 235 kts 247°
2026-04-26 11:03 35.68399 -0.44445 3113 ft 237 kts 247°
2026-04-26 11:03 35.67760 -0.46325 2770 ft 238 kts 246°
2026-04-26 11:04 35.67140 -0.48149 2628 ft 230 kts 245°
2026-04-26 11:04 35.66530 -0.49949 2409 ft 226 kts 245°
2026-04-26 11:04 35.65931 -0.51714 2155 ft 223 kts 245°
2026-04-26 11:04 35.65363 -0.53451 1847 ft 211 kts 246°
2026-04-26 11:05 35.64813 -0.55039 1459 ft 198 kts 245°
2026-04-26 11:05 35.64265 -0.56575 962 ft 194 kts 247°
2026-04-26 11:05 35.63764 -0.58070 646 ft 184 kts 249°
2026-04-26 11:05 35.63296 -0.59453 501 ft 168 kts 248°
2026-04-26 11:06 35.62865 -0.60697 371 ft 148 kts 249°
2026-04-26 11:06 35.62614 -0.61441 314 ft 134 kts 248°
2026-04-26 11:06 35.62294 -0.62316 311 ft 25 kts 245°
2026-04-26 11:06 35.62285 -0.62350 312 ft 0 kts 253°
2026-04-26 11:07 35.62279 -0.62377 312 ft 11 kts 255°
2026-04-26 11:07 35.62209 -0.62463 312 ft 14 kts 176°
2026-04-26 11:07 35.62167 -0.62448 313 ft 5 kts 168°
2026-04-26 11:07 35.62133 -0.62438 313 ft 5 kts 165°
2026-04-26 11:08 35.62104 -0.62425 313 ft 4 kts 157°
2026-04-26 11:08 35.62096 -0.62420 313 ft 0 kts 157°
2026-04-26 11:12 35.62093 -0.62419 313 ft 3 kts 157°
2026-04-26 11:12 35.62038 -0.62390 313 ft 10 kts 157°
2026-04-26 11:13 35.61975 -0.62357 313 ft 10 kts 157°
2026-04-26 11:13 35.61913 -0.62325 313 ft 10 kts 157°
2026-04-26 11:13 35.61847 -0.62291 313 ft 11 kts 157°
2026-04-26 11:13 35.61809 -0.62239 313 ft 7 kts 112°
2026-04-26 11:14 35.61797 -0.62182 313 ft 7 kts 99°
2026-04-26 11:14 35.61794 -0.62128 313 ft 5 kts 84°
2026-04-26 11:14 35.61803 -0.62092 313 ft 5 kts 67°
2026-04-26 11:14 35.61820 -0.62043 312 ft 7 kts 67°
2026-04-26 11:15 35.61841 -0.61982 313 ft 8 kts 67°
2026-04-26 11:15 35.61865 -0.61913 312 ft 12 kts 67°
2026-04-26 11:15 35.61898 -0.61814 313 ft 13 kts 67°
2026-04-26 11:15 35.61933 -0.61712 311 ft 13 kts 67°
2026-04-26 11:16 35.61969 -0.61607 312 ft 14 kts 67°
2026-04-26 11:16 35.62007 -0.61498 313 ft 14 kts 67°
2026-04-26 11:16 35.62010 -0.61391 313 ft 12 kts 127°
2026-04-26 11:16 35.61962 -0.61319 313 ft 9 kts 128°
2026-04-26 11:17 35.61921 -0.61257 313 ft 9 kts 130°
2026-04-26 11:17 35.61878 -0.61194 312 ft 9 kts 129°
2026-04-26 11:17 35.61871 -0.61184 313 ft 0 kts 129°